Location: Chemnitz
(49.5500°N, 11.5830°E)
Time: 12:19:05
(UTC+01:00)

ISS - Pass Details

Date: 16 November 2017
Orbit: 402 x 407 km, 51.6° (Epoch: 23 November)

Event Time Altitude Azimuth Distance (km) Brightness Sun altitude
Exits shadow 05:38:01 24° 210° (SSW) 869 -2.4 -17.4°
Drops below altitude 10° 05:40:32 10° 159° (SSE) 1,449 -0.6 -17.0°
Sets 05:42:49 0° 146° (SE) 2,305 0.7 -16.7°
